Weather History for Birmingham, United Kingdom

Change the Weather History Date:

Monday, January 20, 2014

  Actual Average Record
Temperature  
Mean Temperature 36 °F -  
Max Temperature 46 °F 43 °F 55 °F (2005)
Min Temperature 26 °F 32 °F 23 °F (2011)
Degree Days  
Heating Degree Days 29    
Moisture  
Dew Point 34 °F    
Average Humidity 93    
Maximum Humidity 100    
Minimum Humidity 76    
Precipitation  
Precipitation 0.00 in 0.07 in - ()
Sea Level Pressure  
Sea Level Pressure 29.74 in    
Wind  
Wind Speed 3 mph ()    
Max Wind Speed 7 mph    
Max Gust Speed -    
Visibility 4.7 miles    
Events Fog    
Averages and records for this station are not official NWS values.
T = Trace of Precipitation, MM = Missing Value Source: Averaged Metar Reports

Daily Weather History Graph

Daily Weather History Graph

Search for Another Location

Airport:

Trip Planner

Search our weather history database for the weather conditions in past years. The results will help you decide how hot, cold, wet, or windy it might be!

Date:

Astronomy

Jan. 20, 2014 Rise Set
Actual Time 8:05 AM GMT 4:31 PM GMT
Civil Twilight 7:26 AM GMT 5:10 PM GMT
Nautical Twilight 6:44 AM GMT 5:52 PM GMT
Astronomical Twilight 6:03 AM GMT 6:33 PM GMT
Moon 9:32 PM GMT (1/20) 9:21 AM GMT (1/20)
Length of Visible Light 9h 43m
Length of Day
8h 26m
Waning Gibbous, 84% of the Moon is Illuminated
Jan 20
Waning Gibbous
Jan 24
Last Quarter
Jan 30
New
Feb 6
First Quarter
Feb 14
Full

Hourly Weather History & Observations

Time (GMT) Temp. Windchill Dew Point Humidity Pressure Visibility Wind Dir Wind Speed Gust Speed Precip Events Conditions
12:20 AM 32.0 °F 26.4 °F 30.2 °F 93% 29.56 in - South 5.8 mph - N/A   Clear
12:50 AM 32.0 °F 25.6 °F 30.2 °F 93% 29.56 in - SSE 6.9 mph - N/A   Clear
1:20 AM 30.2 °F 25.4 °F 28.4 °F 93% 29.56 in - SSE 4.6 mph - N/A   Clear
1:50 AM 28.4 °F 23.3 °F 28.4 °F 100% 29.56 in 5.0 mi SSE 4.6 mph - N/A   Unknown
2:20 AM 28.4 °F 23.3 °F 28.4 °F 100% 29.59 in 4.3 mi SE 4.6 mph - N/A   Unknown
2:50 AM 30.2 °F 26.7 °F 28.4 °F 93% 29.59 in 3.7 mi SSE 3.5 mph - N/A   Unknown
3:20 AM 28.4 °F 23.3 °F 26.6 °F 93% 29.59 in - SSE 4.6 mph - N/A   Clear
3:50 AM 28.4 °F - 28.4 °F 100% 29.62 in - Variable 2.3 mph - N/A   Clear
4:20 AM 30.2 °F - 28.4 °F 93% 29.62 in - NNE 2.3 mph - N/A   Clear
4:50 AM 28.4 °F - 28.4 °F 100% 29.62 in 5.6 mi Calm Calm - N/A   Unknown
5:20 AM 26.6 °F - 26.6 °F 100% 29.62 in 5.6 mi Calm Calm - N/A   Unknown
5:50 AM 28.4 °F - 28.4 °F 100% 29.65 in 5.6 mi Calm Calm - N/A Fog Fog
6:20 AM 26.6 °F - 26.6 °F 100% 29.65 in 5.6 mi Calm Calm - N/A Fog Fog
6:50 AM 28.4 °F - 28.4 °F 100% 29.65 in 4.3 mi Calm Calm - N/A Fog Fog
7:20 AM 28.4 °F 24.6 °F 28.4 °F 100% 29.68 in 3.7 mi South 3.5 mph - N/A Fog Fog
7:50 AM 30.2 °F - 30.2 °F 100% 29.68 in - Variable 2.3 mph - N/A   Mist
8:20 AM 28.4 °F 23.3 °F 28.4 °F 100% 29.71 in - SE 4.6 mph - N/A   Mist
8:50 AM 30.2 °F 25.4 °F 30.2 °F 100% 29.71 in 4.3 mi SE 4.6 mph - N/A   Unknown
9:20 AM 32.0 °F - 32.0 °F 100% 29.71 in 3.1 mi SSE 2.3 mph - N/A   Mist
9:50 AM 35.6 °F - 35.6 °F 100% 29.74 in - Calm Calm - N/A   Mist
10:20 AM 37.4 °F - 35.6 °F 93% 29.74 in 3.7 mi Calm Calm - N/A   Unknown
10:50 AM 37.4 °F - 35.6 °F 93% 29.77 in 4.3 mi Calm Calm - N/A   Unknown
11:20 AM 41.0 °F - 39.2 °F 93% 29.77 in 5.0 mi Calm Calm - N/A   Unknown
11:50 AM 41.0 °F - 37.4 °F 87% 29.77 in 5.6 mi NNW 2.3 mph - N/A   Unknown
12:20 PM 42.8 °F - 39.2 °F 87% 29.77 in - NE 2.3 mph - N/A   Clear
12:50 PM 44.6 °F 43.1 °F 39.2 °F 81% 29.77 in 6.2 mi Variable 3.5 mph - N/A   Partly Cloudy
1:20 PM 44.6 °F 43.1 °F 39.2 °F 81% 29.77 in 6.2 mi Variable 3.5 mph - N/A   Partly Cloudy
1:50 PM 46.4 °F - 39.2 °F 76% 29.77 in - Calm Calm - N/A   Clear
2:20 PM 44.6 °F - 39.2 °F 81% 29.77 in - Variable 2.3 mph - N/A   Clear
2:50 PM 42.8 °F - 39.2 °F 87% 29.77 in 6.2 mi Variable 2.3 mph - N/A   Mostly Cloudy
3:20 PM 42.8 °F 41.1 °F 39.2 °F 87% 29.80 in 6.2 mi South 3.5 mph - N/A   Mostly Cloudy
3:50 PM 42.8 °F - 39.2 °F 87% 29.80 in 6.2 mi ESE 2.3 mph - N/A   Mostly Cloudy
4:20 PM 42.8 °F - 39.2 °F 87% 29.80 in 5.6 mi East 2.3 mph - N/A   Mostly Cloudy
4:50 PM 42.8 °F 41.1 °F 39.2 °F 87% 29.83 in 5.0 mi SE 3.5 mph - N/A   Mostly Cloudy
5:20 PM 41.0 °F - 37.4 °F 87% 29.83 in 5.0 mi Calm Calm - N/A   Overcast
5:50 PM 39.2 °F - 35.6 °F 87% 29.83 in 3.7 mi Variable 2.3 mph - N/A   Mostly Cloudy
6:20 PM 39.2 °F - 37.4 °F 93% 29.83 in 3.1 mi Variable 2.3 mph - N/A   Haze
6:50 PM 39.2 °F - 37.4 °F 93% 29.83 in 3.1 mi Calm Calm - N/A   Haze
7:20 PM 39.2 °F - 37.4 °F 93% 29.86 in 3.1 mi Calm Calm - N/A   Haze
7:50 PM 39.2 °F - 37.4 °F 93% 29.86 in 3.7 mi Calm Calm - N/A   Overcast
8:20 PM 39.2 °F - 37.4 °F 93% 29.86 in 3.1 mi Variable 2.3 mph - N/A   Haze
8:50 PM 39.2 °F - 37.4 °F 93% 29.86 in 3.1 mi Calm Calm - N/A   Haze
9:20 PM 35.6 °F - 33.8 °F 93% 29.86 in 3.1 mi Calm Calm - N/A   Haze
9:50 PM 35.6 °F 32.8 °F 35.6 °F 100% 29.86 in 5.6 mi Variable 3.5 mph - N/A   Partly Cloudy
10:20 PM 33.8 °F - 32.0 °F 93% 29.86 in 5.0 mi Variable 2.3 mph - N/A   Unknown
10:50 PM 32.0 °F - 32.0 °F 100% 29.86 in 5.0 mi SE 2.3 mph - N/A   Unknown
11:20 PM 32.0 °F 28.7 °F 32.0 °F 100% 29.86 in 5.0 mi SE 3.5 mph - N/A   Mostly Cloudy
11:50 PM 32.0 °F 28.7 °F 32.0 °F 100% 29.86 in 5.6 mi ESE 3.5 mph - N/A   Overcast